TimeEDT,TemperatureF,Dew PointF,Humidity,Sea Level PressureIn,VisibilityMPH,Wind Direction,Wind SpeedMPH,Gust SpeedMPH,PrecipitationIn,Events,Conditions,WindDirDegrees,DateUTC
12:12 AM,43.7,40.1,87,29.77,4.0,SSW,3.5,-,N/A,Rain,Light Rain,200,2012-10-10 04:12:00
12:32 AM,43.3,39.9,88,29.76,7.0,WSW,3.5,-,N/A,Rain,Rain,240,2012-10-10 04:32:00
12:53 AM,43.3,40.3,89,29.75,10.0,South,4.6,-,N/A,Rain,Rain,170,2012-10-10 04:53:00
1:12 AM,43.7,40.1,87,29.74,10.0,South,6.9,-,N/A,,Drizzle,190,2012-10-10 05:12:00
1:33 AM,42.8,40.1,90,29.74,10.0,SSW,4.6,-,N/A,,Light Drizzle,210,2012-10-10 05:33:00
1:53 AM,43.0,40.5,91,29.75,10.0,South,3.5,-,N/A,,Overcast,190,2012-10-10 05:53:00
2:12 AM,43.0,40.5,91,29.75,10.0,SSE,3.5,-,N/A,,Overcast,160,2012-10-10 06:12:00
2:33 AM,42.8,39.6,88,29.74,10.0,SSW,5.8,-,N/A,,Overcast,210,2012-10-10 06:33:00
2:53 AM,42.8,40.1,90,29.74,10.0,SSW,5.8,-,N/A,,Overcast,200,2012-10-10 06:53:00
3:12 AM,43.0,40.5,91,29.74,10.0,South,4.6,-,N/A,,Overcast,180,2012-10-10 07:12:00
3:33 AM,43.0,40.6,91,29.73,10.0,South,8.1,-,N/A,,Overcast,170,2012-10-10 07:33:00
3:53 AM,43.0,40.8,92,29.73,10.0,South,4.6,-,N/A,,Overcast,180,2012-10-10 07:53:00
4:12 AM,42.8,40.6,92,29.73,10.0,Calm,Calm,-,N/A,,Mostly Cloudy,0,2012-10-10 08:12:00
4:33 AM,43.0,40.3,90,29.73,10.0,Calm,Calm,-,N/A,,Clear,0,2012-10-10 08:33:00
4:52 AM,43.9,37.8,79,29.73,10.0,West,5.8,-,N/A,,Clear,270,2012-10-10 08:52:00
5:13 AM,44.6,37.8,77,29.73,10.0,West,4.6,-,N/A,,Mostly Cloudy,260,2012-10-10 09:13:00
5:33 AM,45.1,37.2,74,29.74,10.0,West,6.9,19.6,N/A,,Overcast,270,2012-10-10 09:33:00
5:53 AM,45.3,37.9,75,29.74,10.0,West,3.5,-,N/A,,Overcast,260,2012-10-10 09:53:00
6:13 AM,45.1,37.6,75,29.75,10.0,West,6.9,-,N/A,,Overcast,270,2012-10-10 10:13:00
6:32 AM,45.0,37.6,75,29.75,10.0,West,5.8,-,N/A,,Overcast,280,2012-10-10 10:32:00
6:53 AM,44.8,37.4,75,29.76,10.0,NNW,5.8,-,N/A,,Overcast,330,2012-10-10 10:53:00
7:13 AM,44.1,36.9,76,29.77,10.0,NW,5.8,-,N/A,,Overcast,310,2012-10-10 11:13:00
7:33 AM,42.6,36.7,79,29.78,7.0,West,6.9,-,N/A,Rain,Rain,280,2012-10-10 11:33:00
7:53 AM,42.1,36.7,81,29.78,7.0,WNW,8.1,-,N/A,Rain,Rain,290,2012-10-10 11:53:00
8:12 AM,41.4,36.5,83,29.78,10.0,West,5.8,-,N/A,,Light Drizzle,280,2012-10-10 12:12:00
8:33 AM,41.9,36.5,81,29.80,5.0,West,6.9,-,N/A,Rain,Rain,280,2012-10-10 12:33:00
8:53 AM,41.0,36.5,84,29.81,7.0,Calm,Calm,-,N/A,Rain,Light Rain,0,2012-10-10 12:53:00
9:12 AM,41.9,36.5,81,29.81,7.0,WNW,4.6,-,N/A,Rain,Light Rain,290,2012-10-10 13:12:00
9:33 AM,42.3,36.0,78,29.82,7.0,WNW,4.6,-,N/A,Rain,Light Rain,300,2012-10-10 13:33:00
9:53 AM,42.6,34.2,72,29.83,10.0,WNW,6.9,-,N/A,Rain,Light Rain,290,2012-10-10 13:53:00
10:12 AM,41.2,34.7,78,29.83,5.0,WNW,5.8,-,N/A,,Drizzle,290,2012-10-10 14:12:00
10:33 AM,41.0,35.8,82,29.84,5.0,WNW,11.5,19.6,N/A,Rain,Light Rain,290,2012-10-10 14:33:00
10:53 AM,40.6,36.0,83,29.84,3.0,West,8.1,16.1,N/A,Rain,Rain,280,2012-10-10 14:53:00
11:13 AM,41.2,36.7,84,29.85,7.0,West,6.9,-,N/A,Rain,Light Rain,280,2012-10-10 15:13:00
11:33 AM,41.0,37.0,86,29.85,5.0,West,6.9,-,N/A,Rain,Rain,280,2012-10-10 15:33:00
11:53 AM,41.0,36.9,85,29.86,3.0,West,6.9,-,N/A,Rain,Rain,280,2012-10-10 15:53:00
12:13 PM,41.0,37.4,87,29.87,2.5,West,11.5,17.3,N/A,,Overcast,280,2012-10-10 16:13:00
12:53 PM,41.4,37.6,86,29.88,2.0,West,6.9,-,N/A,Rain,Light Rain,280,2012-10-10 16:53:00
1:13 PM,40.5,35.8,83,29.89,2.5,WNW,10.4,17.3,N/A,Rain,Light Rain,290,2012-10-10 17:13:00
1:33 PM,40.3,36.5,86,29.89,2.0,West,9.2,17.3,N/A,Rain,Light Rain,280,2012-10-10 17:33:00
1:52 PM,41.0,36.5,84,29.89,5.0,NW,3.5,-,N/A,Rain,Light Rain,310,2012-10-10 17:52:00
2:13 PM,41.0,36.7,85,29.90,3.0,West,8.1,18.4,N/A,Rain,Rain,280,2012-10-10 18:13:00
2:33 PM,41.2,37.2,86,29.90,5.0,WNW,6.9,18.4,N/A,Rain,Rain,290,2012-10-10 18:33:00
2:53 PM,40.8,36.7,85,29.90,5.0,WNW,8.1,21.9,N/A,Rain,Rain,290,2012-10-10 18:53:00
3:13 PM,40.8,37.0,86,29.91,2.5,WNW,11.5,19.6,N/A,Rain,Light Rain,300,2012-10-10 19:13:00
3:33 PM,39.7,35.8,86,29.92,1.2,West,15.0,20.7,N/A,Rain,Rain,280,2012-10-10 19:33:00
3:53 PM,41.9,37.0,83,29.92,10.0,West,8.1,-,N/A,Rain,Light Rain,280,2012-10-10 19:53:00
4:13 PM,42.4,36.7,80,29.93,10.0,NW,8.1,-,N/A,Rain,Light Rain,310,2012-10-10 20:13:00
4:33 PM,41.0,36.3,83,29.93,7.0,NW,3.5,-,N/A,Rain,Light Rain,310,2012-10-10 20:33:00
4:53 PM,40.6,36.5,85,29.93,10.0,NW,6.9,-,N/A,,Overcast,320,2012-10-10 20:53:00
5:13 PM,40.5,36.7,86,29.94,10.0,NW,4.6,-,N/A,,Overcast,320,2012-10-10 21:13:00
5:33 PM,40.5,36.7,86,29.95,10.0,Calm,Calm,-,N/A,,Overcast,0,2012-10-10 21:33:00
5:53 PM,39.4,35.6,86,29.96,3.0,NW,10.4,-,N/A,Rain,Light Rain,310,2012-10-10 21:53:00
6:13 PM,39.9,35.6,85,29.97,4.0,WNW,10.4,26.5,N/A,Rain,Light Rain,300,2012-10-10 22:13:00
6:33 PM,40.6,35.2,81,29.98,10.0,NW,9.2,23.0,N/A,Rain,Light Rain,310,2012-10-10 22:33:00
6:53 PM,41.2,34.9,78,29.98,10.0,West,8.1,-,N/A,,Overcast,280,2012-10-10 22:53:00
7:13 PM,42.3,32.0,67,29.99,10.0,West,8.1,-,N/A,,Overcast,280,2012-10-10 23:13:00
7:33 PM,42.6,32.0,66,30.00,10.0,West,11.5,16.1,N/A,Rain,Light Rain,280,2012-10-10 23:33:00
7:53 PM,40.1,34.0,79,30.02,7.0,West,6.9,18.4,N/A,Rain,Light Rain,270,2012-10-10 23:53:00
8:13 PM,40.1,34.7,81,30.02,10.0,NW,3.5,-,N/A,,Overcast,320,2012-10-11 00:13:00
8:33 PM,41.9,31.1,66,30.03,10.0,WNW,6.9,-,N/A,,Overcast,290,2012-10-11 00:33:00
8:53 PM,42.1,29.7,61,30.03,10.0,NW,5.8,-,N/A,,Overcast,310,2012-10-11 00:53:00
9:13 PM,42.1,28.4,58,30.04,10.0,NW,6.9,-,N/A,,Mostly Cloudy,310,2012-10-11 01:13:00
9:33 PM,41.5,27.3,57,30.05,10.0,NW,5.8,-,N/A,,Scattered Clouds,310,2012-10-11 01:33:00
9:53 PM,41.9,28.0,58,30.06,10.0,WNW,6.9,-,N/A,,Mostly Cloudy,290,2012-10-11 01:53:00
10:14 PM,42.8,28.2,56,30.06,10.0,Calm,Calm,-,N/A,,Overcast,0,2012-10-11 02:14:00
10:33 PM,42.3,28.6,58,30.06,10.0,WNW,3.5,-,N/A,,Overcast,300,2012-10-11 02:33:00
10:53 PM,42.3,29.1,60,30.06,10.0,Calm,Calm,-,N/A,,Overcast,0,2012-10-11 02:53:00
11:14 PM,42.8,28.9,58,30.06,10.0,WNW,3.5,-,N/A,,Overcast,290,2012-10-11 03:14:00
11:33 PM,43.0,28.6,57,30.06,10.0,West,3.5,-,N/A,,Overcast,260,2012-10-11 03:33:00
11:53 PM,43.2,28.8,57,30.06,10.0,West,3.5,-,N/A,,Overcast,260,2012-10-11 03:53:00